Time,TemperatureF,DewpointF,PressureIn,WindDirection,WindDirectionDegrees,WindSpeedMPH,WindSpeedGustMPH,Humidity,HourlyPrecipIn,Conditions,Clouds,dailyrainin,SoftwareType,DateUTC
2013-02-22 02:00:00,7.0,3.0,-100.00,North,-999,-999.0,-999.0,85,-99.99,,,-99.99,,2013-02-22 09:00:00,
2013-02-22 06:00:00,8.0,5.0,-100.00,North,-999,-999.0,-999.0,86,-99.99,,,-99.99,,2013-02-22 13:00:00,
2013-02-22 06:52:00,8.0,5.0,-100.00,North,-999,-999.0,-999.0,86,-99.99,,,-99.99,,2013-02-22 13:52:00,
2013-02-22 10:00:00,11.0,7.0,-100.00,North,-999,-999.0,-999.0,84,-99.99,,,-99.99,,2013-02-22 17:00:00,
2013-02-22 10:52:00,11.0,7.0,-100.00,North,-999,-999.0,-999.0,84,-99.99,,,-99.99,,2013-02-22 17:52:00,
2013-02-22 11:00:00,13.0,7.0,-100.00,North,-999,-999.0,-999.0,75,-99.99,,,-99.99,,2013-02-22 18:00:00,
2013-02-22 11:32:00,13.0,7.0,-100.00,North,-999,-999.0,-999.0,75,-99.99,,,-99.99,,2013-02-22 18:32:00,
2013-02-22 11:42:00,13.0,7.0,-100.00,North,-999,-999.0,-999.0,75,-99.99,,,-99.99,,2013-02-22 18:42:00,
2013-02-22 11:52:00,13.0,7.0,-100.00,North,-999,-999.0,-999.0,75,-99.99,,,-99.99,,2013-02-22 18:52:00,
2013-02-22 12:00:00,13.0,5.0,-100.00,North,-999,-999.0,-999.0,71,-99.99,,,-99.99,,2013-02-22 19:00:00,
2013-02-22 12:31:00,13.0,5.0,-100.00,North,-999,-999.0,-999.0,71,-99.99,,,-99.99,,2013-02-22 19:31:00,
2013-02-22 12:42:00,13.0,5.0,-100.00,North,-999,-999.0,-999.0,71,-99.99,,,-99.99,,2013-02-22 19:42:00,
2013-02-22 12:52:00,13.0,5.0,-100.00,North,-999,-999.0,-999.0,71,-99.99,,,-99.99,,2013-02-22 19:52:00,
2013-02-22 13:00:00,13.0,6.0,-100.00,North,-999,-999.0,-999.0,72,-99.99,,,-99.99,,2013-02-22 20:00:00,
2013-02-22 13:32:00,13.0,6.0,-100.00,North,-999,-999.0,-999.0,72,-99.99,,,-99.99,,2013-02-22 20:32:00,
2013-02-22 13:42:00,13.0,6.0,-100.00,North,-999,-999.0,-999.0,72,-99.99,,,-99.99,,2013-02-22 20:42:00,
2013-02-22 13:52:00,13.0,6.0,-100.00,North,-999,-999.0,-999.0,72,-99.99,,,-99.99,,2013-02-22 20:52:00,
2013-02-22 14:00:00,12.0,6.0,-100.00,North,-999,-999.0,-999.0,73,-99.99,,,-99.99,,2013-02-22 21:00:00,
2013-02-22 14:32:00,12.0,6.0,-100.00,North,-999,-999.0,-999.0,73,-99.99,,,-99.99,,2013-02-22 21:32:00,
2013-02-22 14:42:00,12.0,6.0,-100.00,North,-999,-999.0,-999.0,73,-99.99,,,-99.99,,2013-02-22 21:42:00,
2013-02-22 14:52:00,12.0,6.0,-100.00,North,-999,-999.0,-999.0,73,-99.99,,,-99.99,,2013-02-22 21:52:00,
2013-02-22 15:00:00,16.0,8.0,-100.00,North,-999,-999.0,-999.0,70,-99.99,,,-99.99,,2013-02-22 22:00:00,
2013-02-22 15:32:00,16.0,8.0,-100.00,North,-999,-999.0,-999.0,70,-99.99,,,-99.99,,2013-02-22 22:32:00,
2013-02-22 15:42:00,16.0,8.0,-100.00,North,-999,-999.0,-999.0,70,-99.99,,,-99.99,,2013-02-22 22:42:00,
2013-02-22 15:52:00,16.0,8.0,-100.00,North,-999,-999.0,-999.0,70,-99.99,,,-99.99,,2013-02-22 22:52:00,
2013-02-22 16:00:00,15.0,6.0,-100.00,North,-999,-999.0,-999.0,66,-99.99,,,-99.99,,2013-02-22 23:00:00,
2013-02-22 16:32:00,15.0,6.0,-100.00,North,-999,-999.0,-999.0,66,-99.99,,,-99.99,,2013-02-22 23:32:00,
2013-02-22 16:42:00,15.0,6.0,-100.00,North,-999,-999.0,-999.0,66,-99.99,,,-99.99,,2013-02-22 23:42:00,
2013-02-22 16:52:00,15.0,6.0,-100.00,North,-999,-999.0,-999.0,66,-99.99,,,-99.99,,2013-02-22 23:52:00,
2013-02-22 17:00:00,12.0,4.0,-100.00,North,-999,-999.0,-999.0,70,-99.99,,,-99.99,,2013-02-23 00:00:00,
2013-02-22 17:32:00,12.0,4.0,-100.00,North,-999,-999.0,-999.0,70,-99.99,,,-99.99,,2013-02-23 00:32:00,
2013-02-22 17:42:00,12.0,4.0,-100.00,North,-999,-999.0,-999.0,70,-99.99,,,-99.99,,2013-02-23 00:42:00,
2013-02-22 17:52:00,12.0,4.0,-100.00,North,-999,-999.0,-999.0,70,-99.99,,,-99.99,,2013-02-23 00:52:00,
2013-02-22 18:00:00,11.0,4.0,-100.00,North,-999,-999.0,-999.0,74,-99.99,,,-99.99,,2013-02-23 01:00:00,
2013-02-22 18:32:00,11.0,4.0,-100.00,North,-999,-999.0,-999.0,74,-99.99,,,-99.99,,2013-02-23 01:32:00,
2013-02-22 18:42:00,11.0,4.0,-100.00,North,-999,-999.0,-999.0,74,-99.99,,,-99.99,,2013-02-23 01:42:00,
2013-02-22 18:52:00,11.0,4.0,-100.00,North,-999,-999.0,-999.0,74,-99.99,,,-99.99,,2013-02-23 01:52:00,
2013-02-22 19:00:00,11.0,5.0,-100.00,North,-999,-999.0,-999.0,76,-99.99,,,-99.99,,2013-02-23 02:00:00,
2013-02-22 19:32:00,11.0,5.0,-100.00,North,-999,-999.0,-999.0,76,-99.99,,,-99.99,,2013-02-23 02:32:00,
2013-02-22 19:42:00,11.0,5.0,-100.00,North,-999,-999.0,-999.0,76,-99.99,,,-99.99,,2013-02-23 02:42:00,
2013-02-22 19:52:00,11.0,5.0,-100.00,North,-999,-999.0,-999.0,76,-99.99,,,-99.99,,2013-02-23 02:52:00,
2013-02-22 20:00:00,12.0,6.0,-100.00,North,-999,-999.0,-999.0,77,-99.99,,,-99.99,,2013-02-23 03:00:00,
2013-02-22 20:32:00,12.0,6.0,-100.00,North,-999,-999.0,-999.0,77,-99.99,,,-99.99,,2013-02-23 03:32:00,
2013-02-22 20:42:00,12.0,6.0,-100.00,North,-999,-999.0,-999.0,77,-99.99,,,-99.99,,2013-02-23 03:42:00,
2013-02-22 20:52:00,12.0,6.0,-100.00,North,-999,-999.0,-999.0,77,-99.99,,,-99.99,,2013-02-23 03:52:00,
2013-02-22 21:00:00,13.0,8.0,-100.00,North,-999,-999.0,-999.0,78,-99.99,,,-99.99,,2013-02-23 04:00:00,
2013-02-22 21:32:00,13.0,8.0,-100.00,North,-999,-999.0,-999.0,78,-99.99,,,-99.99,,2013-02-23 04:32:00,
2013-02-22 21:42:00,13.0,8.0,-100.00,North,-999,-999.0,-999.0,78,-99.99,,,-99.99,,2013-02-23 04:42:00,
2013-02-22 21:52:00,13.0,8.0,-100.00,North,-999,-999.0,-999.0,78,-99.99,,,-99.99,,2013-02-23 04:52:00,
2013-02-22 22:00:00,12.0,8.0,-100.00,North,-999,-999.0,-999.0,85,-99.99,,,-99.99,,2013-02-23 05:00:00,
2013-02-22 22:33:00,12.0,8.0,-100.00,North,-999,-999.0,-999.0,85,-99.99,,,-99.99,,2013-02-23 05:33:00,
2013-02-22 22:42:00,12.0,8.0,-100.00,North,-999,-999.0,-999.0,85,-99.99,,,-99.99,,2013-02-23 05:42:00,
2013-02-22 22:52:00,12.0,8.0,-100.00,North,-999,-999.0,-999.0,85,-99.99,,,-99.99,,2013-02-23 05:52:00,
2013-02-22 23:00:00,13.0,9.0,-100.00,North,-999,-999.0,-999.0,81,-99.99,,,-99.99,,2013-02-23 06:00:00,
2013-02-22 23:32:00,13.0,9.0,-100.00,North,-999,-999.0,-999.0,81,-99.99,,,-99.99,,2013-02-23 06:32:00,
2013-02-22 23:42:00,13.0,9.0,-100.00,North,-999,-999.0,-999.0,81,-99.99,,,-99.99,,2013-02-23 06:42:00,
2013-02-22 23:52:00,13.0,9.0,-100.00,North,-999,-999.0,-999.0,81,-99.99,,,-99.99,,2013-02-23 06:52:00,